When you browse on this site, cookies collect data to enhance your experience and personalize the content and advertising you see.
Visit our Privacy Policy to learn more. By continuing to use the site, you agree to this use of cookies and data.
  • In Hungary
  • List of Countries
  • For 7 days
  • Water Temperature
  • Satellite Maps
  • Weather Map
  • News
  • Weather Widgets
  • user-avatar
    Login

    Hourly Weather Askaniya-Nova

    Today, 19 January, Saturday

    Time Temperature Precipitation Wind Pressure Humidity
    00:00 +3°C° 0 mm 4 mps 760 mmHg 93%
    01:00 +2°C° 0 mm 5 mps 760 mmHg 94%
    02:00 +2°C° 0 mm 5 mps 760 mmHg 95%
    03:00 +3°C° 0 mm 4 mps 760 mmHg 95%
    04:00 +3°C° 0 mm 4 mps 760 mmHg 95%
    05:00 +3°C° 0 mm 4 mps 759 mmHg 95%
    06:00 +1°C° 0 mm 4 mps 760 mmHg 94%
    07:00 0°C° 0 mm 4 mps 760 mmHg 93%
    08:00 -1°C° 0 mm 4 mps 761 mmHg 92%
    09:00 0°C° 0 mm 5 mps 761 mmHg 88%
    10:00 +1°C° 0 mm 5 mps 762 mmHg 83%
    11:00 +1°C° 0 mm 5 mps 762 mmHg 79%
    12:00 +1°C° 0 mm 5 mps 763 mmHg 78%
    13:00 +1°C° 0 mm 6 mps 763 mmHg 77%
    14:00 +1°C° 0 mm 6 mps 764 mmHg 76%
    15:00 0°C° 0 mm 5 mps 764 mmHg 77%
    16:00 -1°C° 0 mm 4 mps 765 mmHg 78%
    17:00 -2°C° 0 mm 4 mps 765 mmHg 79%
    18:00 -2°C° 0 mm 4 mps 765 mmHg 78%
    19:00 -3°C° 0 mm 4 mps 766 mmHg 78%
    20:00 -4°C° 0 mm 4 mps 766 mmHg 77%
    21:00 -4°C° 0 mm 4 mps 767 mmHg 76%
    22:00 -4°C° 0 mm 4 mps 767 mmHg 75%
    23:00 -4°C° 0 mm 4 mps 767 mmHg 73%

    Tomorrow, 20 January, Sunday

    Time Temperature Precipitation Wind Pressure Humidity
    00:00 -4°C° 0 mm 4 mps 767 mmHg 73%
    01:00 -4°C° 0 mm 3 mps 767 mmHg 73%
    02:00 -5°C° 0 mm 3 mps 767 mmHg 72%
    03:00 -5°C° 0 mm 3 mps 767 mmHg 72%
    04:00 -5°C° 0 mm 3 mps 767 mmHg 72%
    05:00 -5°C° 0 mm 4 mps 767 mmHg 71%
    06:00 -5°C° 0 mm 4 mps 767 mmHg 71%
    07:00 -5°C° 0 mm 4 mps 767 mmHg 70%
    08:00 -5°C° 0 mm 4 mps 767 mmHg 70%
    09:00 -4°C° 0 mm 4 mps 767 mmHg 67%
    10:00 -3°C° 0 mm 4 mps 767 mmHg 64%
    11:00 -2°C° 0 mm 4 mps 767 mmHg 61%
    12:00 -2°C° 0 mm 4 mps 766 mmHg 63%
    13:00 -1°C° 0 mm 4 mps 766 mmHg 64%
    14:00 -1°C° 0 mm 4 mps 765 mmHg 65%
    15:00 -1°C° 0 mm 4 mps 765 mmHg 70%
    16:00 -2°C° 0 mm 4 mps 765 mmHg 75%
    17:00 -2°C° 0 mm 4 mps 764 mmHg 79%
    18:00 -3°C° 0 mm 4 mps 764 mmHg 82%
    19:00 -3°C° 0 mm 4 mps 764 mmHg 85%
    20:00 -3°C° 0 mm 4 mps 764 mmHg 88%
    21:00 -3°C° 0 mm 4 mps 763 mmHg 87%
    22:00 -1°C° 0 mm 3 mps 763 mmHg 87%
    23:00 -1°C° 0 mm 3 mps 763 mmHg 87%

    Day after tomorrow, 21 January, Monday

    Time Temperature Precipitation Wind Pressure Humidity
    00:00 -1°C° 0.1 mm 3 mps 762 mmHg 88%
    01:00 -1°C° 0.1 mm 3 mps 762 mmHg 89%
    02:00 0°C° 0.1 mm 3 mps 762 mmHg 90%
    03:00 0°C° 0.1 mm 3 mps 761 mmHg 90%
    04:00 0°C° 0.1 mm 3 mps 761 mmHg 91%
    05:00 0°C° 0.1 mm 3 mps 760 mmHg 91%
    06:00 0°C° 0.7 mm 3 mps 760 mmHg 92%
    07:00 +1°C° 0.7 mm 3 mps 760 mmHg 93%
    08:00 +1°C° 0.7 mm 3 mps 760 mmHg 94%
    09:00 +2°C° 1.3 mm 2 mps 760 mmHg 95%
    10:00 +2°C° 1.3 mm 2 mps 760 mmHg 96%
    11:00 +3°C° 1.3 mm 2 mps 759 mmHg 97%
    12:00 +1°C° 1 mm 3 mps 759 mmHg 96%
    13:00 0°C° 1 mm 4 mps 759 mmHg 96%
    14:00 0°C° 1 mm 4 mps 759 mmHg 95%
    15:00 0°C° 0 mm 5 mps 759 mmHg 93%
    16:00 -1°C° 0 mm 5 mps 760 mmHg 92%
    17:00 -2°C° 0 mm 6 mps 760 mmHg 90%
    18:00 -3°C° 0 mm 6 mps 760 mmHg 89%
    19:00 -3°C° 0 mm 6 mps 761 mmHg 88%
    20:00 -3°C° 0 mm 6 mps 762 mmHg 87%
    21:00 -3°C° 0 mm 6 mps 762 mmHg 87%
    22:00 -4°C° 0 mm 6 mps 762 mmHg 86%
    23:00 -4°C° 0 mm 5 mps 763 mmHg 86%

    22 January, Tuesday

    Time Temperature Precipitation Wind Pressure Humidity
    00:00 -4°C° 0 mm 5 mps 763 mmHg 86%
    01:00 -4°C° 0 mm 5 mps 763 mmHg 86%
    02:00 -4°C° 0 mm 4 mps 764 mmHg 86%
    03:00 -4°C° 0 mm 4 mps 764 mmHg 86%
    04:00 -4°C° 0 mm 4 mps 764 mmHg 86%
    05:00 -4°C° 0 mm 4 mps 764 mmHg 85%
    06:00 -4°C° 0 mm 3 mps 764 mmHg 85%
    07:00 -4°C° 0 mm 3 mps 764 mmHg 85%
    08:00 -5°C° 0 mm 3 mps 764 mmHg 85%
    09:00 -4°C° 0 mm 3 mps 764 mmHg 83%
    10:00 -3°C° 0 mm 2 mps 764 mmHg 80%
    11:00 -2°C° 0 mm 2 mps 764 mmHg 78%
    12:00 -2°C° 0 mm 2 mps 764 mmHg 77%
    13:00 -1°C° 0 mm 2 mps 763 mmHg 77%
    14:00 -1°C° 0 mm 2 mps 763 mmHg 77%
    15:00 -1°C° 0 mm 2 mps 763 mmHg 80%
    16:00 -1°C° 0 mm 2 mps 762 mmHg 83%
    17:00 -2°C° 0 mm 3 mps 762 mmHg 86%
    18:00 -2°C° 0 mm 3 mps 762 mmHg 87%
    19:00 -2°C° 0 mm 3 mps 762 mmHg 88%
    20:00 -3°C° 0 mm 4 mps 762 mmHg 90%
    21:00 -3°C° 0 mm 4 mps 761 mmHg 90%
    22:00 -3°C° 0 mm 4 mps 761 mmHg 90%
    23:00 -3°C° 0 mm 4 mps 761 mmHg 90%

    23 January, Wednesday

    Time Temperature Precipitation Wind Pressure Humidity
    00:00 -3°C° 0.1 mm 4 mps 760 mmHg 91%
    01:00 -3°C° 0.1 mm 4 mps 760 mmHg 91%
    02:00 -2°C° 0.1 mm 4 mps 759 mmHg 91%
    03:00 -2°C° 0.1 mm 4 mps 759 mmHg 91%
    04:00 -2°C° 0.1 mm 4 mps 758 mmHg 92%
    05:00 -2°C° 0.1 mm 4 mps 758 mmHg 92%
    06:00 -2°C° 0.2 mm 4 mps 758 mmHg 92%
    07:00 -2°C° 0.2 mm 5 mps 758 mmHg 92%
    08:00 -2°C° 0.2 mm 5 mps 758 mmHg 92%
    09:00 -1°C° 0.2 mm 5 mps 757 mmHg 91%
    10:00 -1°C° 0.2 mm 5 mps 757 mmHg 90%
    11:00 0°C° 0.2 mm 5 mps 757 mmHg 89%
    12:00 0°C° 0 mm 5 mps 757 mmHg 89%
    13:00 +1°C° 0 mm 5 mps 756 mmHg 89%
    14:00 +1°C° 0 mm 5 mps 756 mmHg 88%
    15:00 +1°C° 0 mm 6 mps 756 mmHg 90%
    16:00 -1°C° 0 mm 6 mps 756 mmHg 92%
    17:00 -1°C° 0 mm 6 mps 756 mmHg 94%
    18:00 -1°C° 0.2 mm 7 mps 756 mmHg 94%
    19:00 -1°C° 0.2 mm 7 mps 756 mmHg 93%
    20:00 0°C° 0.2 mm 8 mps 756 mmHg 93%
    21:00 0°C° 0.1 mm 8 mps 755 mmHg 93%
    22:00 0°C° 0.1 mm 8 mps 755 mmHg 93%
    23:00 0°C° 0.1 mm 9 mps 755 mmHg 93%

    24 January, Thursday

    Time Temperature Precipitation Wind Pressure Humidity
    00:00 0°C° 1.1 mm 8 mps 755 mmHg 93%
    01:00 0°C° 1.1 mm 8 mps 755 mmHg 93%
    02:00 0°C° 1.1 mm 8 mps 754 mmHg 93%
    03:00 0°C° 0.9 mm 8 mps 754 mmHg 94%
    04:00 0°C° 0.9 mm 8 mps 754 mmHg 94%
    05:00 0°C° 0.9 mm 7 mps 754 mmHg 94%
    06:00 0°C° 0 mm 7 mps 754 mmHg 94%
    07:00 +1°C° 0 mm 6 mps 754 mmHg 94%
    08:00 +1°C° 0 mm 6 mps 754 mmHg 95%
    09:00 +3°C° 0 mm 5 mps 754 mmHg 91%
    10:00 +5°C° 0 mm 5 mps 754 mmHg 88%
    11:00 +6°C° 0 mm 5 mps 754 mmHg 85%
    12:00 +6°C° 0 mm 5 mps 754 mmHg 82%
    13:00 +7°C° 0 mm 4 mps 754 mmHg 80%
    14:00 +8°C° 0 mm 4 mps 754 mmHg 77%
    15:00 +7°C° 0 mm 5 mps 754 mmHg 81%
    16:00 +6°C° 0 mm 5 mps 754 mmHg 85%
    17:00 +5°C° 0 mm 5 mps 754 mmHg 88%
    18:00 +5°C° 0 mm 5 mps 754 mmHg 88%
    19:00 +5°C° 0 mm 5 mps 754 mmHg 88%
    20:00 +4°C° 0 mm 6 mps 754 mmHg 87%
    21:00 +3°C° 0 mm 6 mps 754 mmHg 88%
    22:00 +3°C° 0 mm 6 mps 754 mmHg 89%
    23:00 +3°C° 0 mm 6 mps 754 mmHg 89%
    Show more